EW2839 Weather Reports


time (UTC)temp
C
wind
direction
speed
KPH
gust
KPH
rain 1hr
cm
rain 24hr
cm
rain mn
cm
humidity
%
barometer
mb
20260506091403 15 22 0.0 0.0 0.00 0.00 0.00 76 1018.0
20260506090903 15 22 0.0 0.0 0.00 0.00 0.00 76 1018.0
20260506084904 15 22 0.0 0.0 0.00 0.00 0.00 76 1018.0
20260506084404 15 257 0.0 0.0 0.00 0.00 0.00 76 1018.0
20260506083903 15 315 0.0 0.0 0.00 0.00 0.00 76 1018.0
20260506083404 15 315 0.0 0.0 0.00 0.00 0.00 76 1018.0
20260506081903 15 68 0.0 0.0 0.00 0.00 0.00 76 1018.0
20260506080904 15 68 0.0 0.0 0.00 0.00 0.00 76 1018.0
20260506080405 15 68 0.0 0.0 0.00 0.00 0.00 76 1018.0
20260506073404 15 112 0.0 0.0 0.00 0.00 0.00 75 1018.0
20260506071904 15 112 0.0 0.0 0.00 0.00 0.00 74 1017.0
20260506071404 15 112 0.0 0.0 0.00 0.00 0.00 74 1018.0
20260506070904 15 112 0.0 0.0 0.00 0.00 0.00 74 1018.0
20260506070405 15 112 0.0 0.0 0.00 0.00 0.00 74 1018.0
20260506061903 15 112 0.0 0.0 0.00 0.00 0.00 74 1017.0
20260506060904 15 112 0.0 0.0 0.00 0.00 0.00 73 1017.0
20260506060403 15 112 0.0 0.0 0.00 0.00 0.00 73 1017.0
20260506051404 15 112 0.0 0.0 0.00 0.00 0.00 72 1017.0
20260506050404 15 68 0.0 1.6 0.00 0.00 0.00 72 1017.0
20260506044904 15 68 0.0 0.0 0.00 0.00 0.00 72 1016.0
20260506044404 15 68 0.0 1.6 0.00 0.00 0.00 72 1017.0
20260506043904 15 68 0.0 1.6 0.00 0.00 0.00 71 1017.0
20260506043404 15 68 0.0 1.6 0.00 0.00 0.00 71 1017.0
20260506041904 16 68 0.0 0.0 0.00 0.00 0.00 71 1017.0
20260506041404 16 68 0.0 0.0 0.00 0.00 0.00 71 1017.0
20260506040904 16 68 0.0 0.0 0.00 0.00 0.00 71 1017.0
20260506040404 16 68 0.0 1.6 0.00 0.00 0.00 71 1017.0
20260506034905 16 68 0.0 0.0 0.00 0.00 0.00 71 1017.0
20260506033904 16 68 0.0 0.0 0.00 0.00 0.00 70 1016.0
20260506033404 16 68 0.0 0.0 0.00 0.00 0.00 70 1016.0
20260506031904 16 68 0.0 0.0 0.00 0.00 0.00 69 1016.0
20260506031404 16 68 0.0 0.0 0.00 0.00 0.00 69 1016.0
20260506030904 16 68 0.0 0.0 0.00 0.00 0.00 68 1016.0
20260506030404 16 68 0.0 0.0 0.00 0.00 0.00 68 1016.0
20260506024904 17 68 0.0 0.0 0.00 0.00 0.00 68 1016.0
20260506023904 17 68 0.0 0.0 0.00 0.00 0.00 67 1016.0
20260506023404 17 68 0.0 0.0 0.00 0.00 0.00 66 1016.0
20260506021404 17 45 0.0 0.0 0.00 0.00 0.00 66 1015.0
20260506020904 17 45 0.0 0.0 0.00 0.00 0.00 67 1015.0
20260506020404 17 45 0.0 0.0 0.00 0.00 0.00 67 1015.0
20260506014904 17 45 0.0 0.0 0.00 0.00 0.00 66 1016.0
20260506014404 17 315 0.0 0.0 0.00 0.00 0.00 66 1015.0
20260506013905 17 315 0.0 0.0 0.00 0.00 0.00 66 1015.0
20260506013404 17 315 0.0 0.0 0.00 0.00 0.00 66 1015.0
20260506011904 17 292 0.0 0.0 0.00 0.00 0.00 67 1016.0
20260506010406 17 333 0.0 3.2 0.00 0.00 0.00 66 1016.0
20260506004904 17 68 0.0 1.6 0.00 0.00 0.00 65 1016.0
20260506004404 17 68 0.0 0.0 0.00 0.00 0.00 65 1016.0
20260506003905 17 68 0.0 0.0 0.00 0.00 0.00 65 1016.0
20260506003404 17 68 0.0 3.2 0.00 0.00 0.00 65 1016.0
20260506001904 17 327 0.0 3.2 0.00 0.00 0.00 64 1016.0
20260506000904 17 270 0.0 0.0 0.00 0.00 0.00 64 1015.0
20260506000403 17 349 0.0 4.8 0.00 0.00 0.00 64 1015.0
20260505234404 17 10 0.0 3.2 0.00 0.00 0.00 65 1016.0
20260505233904 17 285 0.0 1.6 0.00 0.00 0.00 64 1016.0
20260505233404 17 341 1.6 8.0 0.00 0.00 0.00 64 1016.0
20260505231404 17 337 1.6 3.2 0.00 0.00 0.00 65 1016.0
20260505230904 17 319 1.6 3.2 0.00 0.00 0.00 64 1016.0
20260505230404 17 268 1.6 4.8 0.00 0.00 0.00 64 1016.0
20260505224903 17 306 1.6 4.8 0.00 0.00 0.00 65 1016.0
20260505224404 17 307 0.0 1.6 0.00 0.00 0.00 64 1016.0
20260505223904 17 298 3.2 8.0 0.00 0.00 0.00 64 1016.0
20260505223404 17 38 1.6 9.7 0.00 0.00 0.00 64 1016.0
20260505221903 17 317 1.6 4.8 0.00 0.00 0.00 64 1016.0
20260505221404 17 22 1.6 4.8 0.00 0.00 0.00 64 1017.0
20260505220405 17 318 0.0 8.0 0.00 0.00 0.00 64 1017.0
20260505214904 17 238 0.0 0.0 0.00 0.00 0.00 66 1017.0
20260505214404 17 223 1.6 11.3 0.00 0.00 0.00 64 1017.0
20260505213403 17 15 0.0 4.8 0.00 0.00 0.00 65 1017.0
20260505211904 17 220 0.0 1.6 0.00 0.00 0.00 65 1017.0
20260505211403 17 322 3.2 4.8 0.00 0.00 0.00 64 1017.0
20260505210903 17 295 1.6 8.0 0.00 0.00 0.00 65 1017.0
20260505210403 17 300 1.6 8.0 0.00 0.00 0.00 65 1017.0
20260505204905 17 128 0.0 0.0 0.00 0.00 0.00 64 1017.0
20260505204404 17 221 0.0 1.6 0.00 0.00 0.00 65 1017.0
20260505203404 17 302 3.2 4.8 0.00 0.00 0.00 66 1017.0
20260505201904 17 214 4.8 9.7 0.00 0.00 0.00 66 1017.0
20260505201403 17 173 1.6 9.7 0.00 0.00 0.00 66 1017.0
20260505200904 17 222 1.6 8.0 0.00 0.00 0.00 67 1017.0
20260505200404 17 247 1.6 8.0 0.00 0.00 0.00 68 1017.0
20260505194904 16 44 1.6 3.2 0.00 0.00 0.00 69 1017.0
20260505194404 16 169 0.0 3.2 0.00 0.00 0.00 68 1017.0
20260505193903 16 149 0.0 0.0 0.00 0.00 0.00 70 1017.0
20260505193403 16 143 0.0 3.2 0.00 0.00 0.00 70 1017.0
20260505191904 16 299 0.0 3.2 0.00 0.00 0.00 70 1017.0
20260505191404 16 299 0.0 0.0 0.00 0.00 0.00 71 1017.0
20260505190904 16 303 0.0 0.0 0.00 0.00 0.00 71 1017.0
20260505190405 16 144 0.0 4.8 0.00 0.00 0.00 71 1017.0
20260505184404 15 313 1.6 4.8 0.00 0.00 0.00 72 1017.0
20260505183403 15 329 0.0 4.8 0.00 0.00 0.00 73 1017.0
20260505181904 15 220 1.6 3.2 0.00 0.00 0.00 72 1017.0
20260505180904 15 225 1.6 4.8 0.00 0.00 0.00 72 1017.0
20260505174904 15 101 0.0 0.0 0.00 0.00 0.00 73 1017.0
20260505174404 15 153 0.0 0.0 0.00 0.00 0.00 74 1017.0
20260505173903 14 186 0.0 0.0 0.00 0.00 0.00 74 1017.0
20260505173404 14 251 0.0 1.6 0.00 0.00 0.00 74 1017.0
20260505171904 14 184 0.0 0.0 0.00 0.00 0.00 74 1017.0
20260505171403 14 183 1.6 3.2 0.00 0.00 0.00 74 1017.0
20260505170903 14 156 0.0 3.2 0.00 0.00 0.00 75 1017.0
20260505170404 13 149 3.2 4.8 0.00 0.00 0.00 76 1017.0
20260505163904 13 220 1.6 8.0 0.00 0.00 0.00 76 1017.0
20260505163404 13 228 3.2 8.0 0.00 0.00 0.00 75 1017.0
20260505161903 13 203 1.6 4.8 0.00 0.00 0.00 76 1016.0
20260505161404 13 212 4.8 8.0 0.00 0.00 0.00 77 1017.0
20260505160903 13 240 0.0 8.0 0.00 0.00 0.00 75 1017.0
20260505160403 13 299 1.6 3.2 0.00 0.00 0.00 76 1017.0
20260505151904 13 214 0.0 0.0 0.00 0.00 0.00 77 1016.0
20260505151404 13 207 0.0 0.0 0.00 0.00 0.00 76 1016.0
20260505150903 13 203 0.0 0.0 0.00 0.00 0.00 76 1016.0
20260505150403 13 245 0.0 0.0 0.00 0.00 0.00 76 1016.0
20260505140404 13 218 0.0 0.0 0.00 0.00 0.00 74 1016.0
20260505124904 13 213 0.0 3.2 0.00 0.00 0.00 73 1015.0
20260505124405 13 225 1.6 3.2 0.00 0.00 0.00 73 1015.0
20260505123904 13 192 0.0 1.6 0.00 0.00 0.00 73 1015.0
20260505123404 13 198 0.0 3.2 0.00 0.00 0.00 73 1015.0
20260505121904 13 198 0.0 0.0 0.00 0.00 0.00 73 1015.0
20260505121403 13 214 1.6 3.2 0.00 0.00 0.00 73 1015.0
20260505120404 13 224 1.6 4.8 0.00 0.00 0.00 72 1015.0
20260505114404 13 225 0.0 1.6 0.00 0.00 0.00 72 1015.0
20260505113904 13 216 1.6 3.2 0.00 0.00 0.00 72 1015.0
20260505113404 13 224 0.0 0.0 0.00 0.00 0.00 72 1015.0
20260505111404 13 255 0.0 0.0 0.00 0.00 0.00 72 1015.0
20260505110903 13 259 0.0 0.0 0.00 0.00 0.00 72 1015.0
20260505110404 13 240 0.0 0.0 0.00 0.00 0.00 72 1015.0
20260505101904 13 229 0.0 0.0 0.00 0.00 0.00 72 1015.0
20260505101405 13 240 0.0 0.0 0.00 0.00 0.00 72 1015.0
20260505100903 13 200 0.0 0.0 0.00 0.00 0.00 72 1015.0
20260505100403 13 229 0.0 0.0 0.00 0.00 0.00 72 1015.0
20260505094403 13 239 0.0 4.8 0.00 0.00 0.00 72 1015.0
20260505093904 13 208 1.6 3.2 0.00 0.00 0.00 72 1015.0
20260505093403 13 198 3.2 8.0 0.00 0.00 0.00 72 1015.0